• In Czech Republic
  • List of Countries
  • For 7 days
  • Water Temperature
  • Satellite Maps
  • Weather Map
  • Weather Widgets
  • user-avatar
    Login

    Hourly Weather Novaya Kazanka

    Today, 15 November, Thursday

    Time Temperature Precipitation Wind Pressure Humidity
    00:00 -5°C° 0 mm 4 mps 778 mmHg 28%
    01:00 -5°C° 0 mm 4 mps 778 mmHg 29%
    02:00 -7°C° 0 mm 4 mps 778 mmHg 29%
    03:00 -7°C° 0 mm 4 mps 778 mmHg 29%
    04:00 -7°C° 0 mm 4 mps 778 mmHg 29%
    05:00 -7°C° 0 mm 4 mps 778 mmHg 29%
    06:00 -7°C° 0 mm 4 mps 778 mmHg 29%
    07:00 -5°C° 0 mm 4 mps 778 mmHg 27%
    08:00 -5°C° 0 mm 5 mps 778 mmHg 25%
    09:00 -4°C° 0 mm 5 mps 778 mmHg 23%
    10:00 -2°C° 0 mm 5 mps 778 mmHg 22%
    11:00 -1°C° 0 mm 5 mps 778 mmHg 20%
    12:00 0°C° 0 mm 5 mps 778 mmHg 19%
    13:00 0°C° 0 mm 5 mps 778 mmHg 20%
    14:00 0°C° 0 mm 5 mps 778 mmHg 21%
    15:00 0°C° 0 mm 5 mps 778 mmHg 22%
    16:00 -1°C° 0 mm 5 mps 778 mmHg 24%
    17:00 -2°C° 0 mm 5 mps 778 mmHg 27%
    18:00 -5°C° 0 mm 5 mps 778 mmHg 29%
    19:00 -5°C° 0 mm 5 mps 779 mmHg 29%
    20:00 -5°C° 0 mm 5 mps 779 mmHg 29%
    21:00 -5°C° 0 mm 5 mps 779 mmHg 29%
    22:00 -5°C° 0 mm 5 mps 779 mmHg 29%
    23:00 -5°C° 0 mm 5 mps 779 mmHg 29%

    Tomorrow, 16 November, Friday

    Time Temperature Precipitation Wind Pressure Humidity
    00:00 -5°C° 0 mm 5 mps 779 mmHg 29%
    01:00 -5°C° 0 mm 5 mps 779 mmHg 31%
    02:00 -5°C° 0 mm 5 mps 779 mmHg 32%
    03:00 -5°C° 0 mm 5 mps 779 mmHg 33%
    04:00 -5°C° 0 mm 5 mps 779 mmHg 35%
    05:00 -5°C° 0 mm 5 mps 779 mmHg 37%
    06:00 -5°C° 0 mm 5 mps 779 mmHg 39%
    07:00 -5°C° 0 mm 5 mps 779 mmHg 39%
    08:00 -4°C° 0 mm 6 mps 780 mmHg 38%
    09:00 -3°C° 0 mm 6 mps 780 mmHg 38%
    10:00 -2°C° 0 mm 6 mps 780 mmHg 36%
    11:00 -1°C° 0 mm 6 mps 780 mmHg 34%
    12:00 +1°C° 0 mm 6 mps 779 mmHg 33%
    13:00 +1°C° 0 mm 6 mps 779 mmHg 34%
    14:00 +1°C° 0 mm 6 mps 779 mmHg 35%
    15:00 +1°C° 0 mm 5 mps 779 mmHg 36%
    16:00 -1°C° 0 mm 5 mps 779 mmHg 39%
    17:00 -2°C° 0 mm 5 mps 779 mmHg 41%
    18:00 -4°C° 0 mm 5 mps 779 mmHg 43%
    19:00 -4°C° 0 mm 5 mps 779 mmHg 44%
    20:00 -4°C° 0 mm 5 mps 779 mmHg 44%
    21:00 -4°C° 0 mm 5 mps 779 mmHg 45%
    22:00 -4°C° 0 mm 5 mps 779 mmHg 45%
    23:00 -5°C° 0 mm 5 mps 778 mmHg 46%

    Day after tomorrow, 17 November, Saturday

    Time Temperature Precipitation Wind Pressure Humidity
    00:00 -5°C° 0 mm 5 mps 778 mmHg 46%
    01:00 -5°C° 0 mm 5 mps 778 mmHg 47%
    02:00 -5°C° 0 mm 5 mps 778 mmHg 47%
    03:00 -5°C° 0 mm 5 mps 778 mmHg 48%
    04:00 -5°C° 0 mm 5 mps 777 mmHg 48%
    05:00 -5°C° 0 mm 5 mps 777 mmHg 49%
    06:00 -5°C° 0 mm 5 mps 777 mmHg 49%
    07:00 -5°C° 0 mm 5 mps 777 mmHg 47%
    08:00 -4°C° 0 mm 5 mps 777 mmHg 45%
    09:00 -2°C° 0 mm 5 mps 777 mmHg 43%
    10:00 -1°C° 0 mm 5 mps 777 mmHg 40%
    11:00 0°C° 0 mm 5 mps 777 mmHg 38%
    12:00 +1°C° 0 mm 5 mps 776 mmHg 36%
    13:00 +1°C° 0 mm 5 mps 776 mmHg 37%
    14:00 +1°C° 0 mm 4 mps 775 mmHg 39%
    15:00 +1°C° 0 mm 3 mps 775 mmHg 40%
    16:00 +1°C° 0 mm 3 mps 775 mmHg 43%
    17:00 0°C° 0 mm 3 mps 775 mmHg 45%
    18:00 -1°C° 0 mm 3 mps 774 mmHg 47%
    19:00 -1°C° 0 mm 3 mps 774 mmHg 47%
    20:00 -1°C° 0 mm 3 mps 774 mmHg 47%
    21:00 -1°C° 0 mm 3 mps 774 mmHg 47%
    22:00 -1°C° 0 mm 3 mps 773 mmHg 47%
    23:00 -1°C° 0 mm 3 mps 773 mmHg 47%

    18 November, Sunday

    Time Temperature Precipitation Wind Pressure Humidity
    00:00 -1°C° 0 mm 3 mps 772 mmHg 47%
    01:00 -1°C° 0 mm 3 mps 772 mmHg 47%
    02:00 -1°C° 0 mm 3 mps 772 mmHg 47%
    03:00 -1°C° 0 mm 3 mps 771 mmHg 46%
    04:00 -1°C° 0 mm 3 mps 771 mmHg 46%
    05:00 -1°C° 0 mm 3 mps 770 mmHg 46%
    06:00 -1°C° 0 mm 3 mps 770 mmHg 45%
    07:00 0°C° 0 mm 3 mps 770 mmHg 44%
    08:00 0°C° 0 mm 3 mps 769 mmHg 43%
    09:00 0°C° 0 mm 3 mps 769 mmHg 41%
    10:00 +1°C° 0 mm 3 mps 769 mmHg 43%
    11:00 +1°C° 0 mm 3 mps 769 mmHg 45%
    12:00 +1°C° 0 mm 3 mps 768 mmHg 47%
    13:00 +1°C° 0 mm 3 mps 768 mmHg 49%
    14:00 +1°C° 0 mm 3 mps 768 mmHg 51%
    15:00 +1°C° 0 mm 3 mps 767 mmHg 54%
    16:00 +1°C° 0.2 mm 3 mps 767 mmHg 58%
    17:00 0°C° 0.2 mm 3 mps 767 mmHg 62%
    18:00 0°C° 0.2 mm 3 mps 767 mmHg 66%
    19:00 0°C° 0.5 mm 3 mps 767 mmHg 73%
    20:00 -1°C° 0.5 mm 3 mps 767 mmHg 79%
    21:00 -1°C° 0.5 mm 2 mps 767 mmHg 86%
    22:00 -1°C° 0.3 mm 2 mps 767 mmHg 86%
    23:00 -1°C° 0.3 mm 2 mps 767 mmHg 86%

    19 November, Monday

    Time Temperature Precipitation Wind Pressure Humidity
    00:00 -1°C° 0.3 mm 2 mps 766 mmHg 85%
    01:00 -1°C° 0.1 mm 2 mps 766 mmHg 84%
    02:00 -1°C° 0.1 mm 2 mps 766 mmHg 83%
    03:00 -1°C° 0.1 mm 2 mps 766 mmHg 81%
    04:00 -1°C° 0 mm 2 mps 766 mmHg 81%
    05:00 -1°C° 0 mm 2 mps 767 mmHg 82%
    06:00 -1°C° 0 mm 2 mps 767 mmHg 82%
    07:00 -1°C° 0 mm 2 mps 767 mmHg 83%
    08:00 -1°C° 0 mm 2 mps 767 mmHg 83%
    09:00 +1°C° 0 mm 2 mps 767 mmHg 84%
    10:00 +1°C° 0 mm 2 mps 768 mmHg 84%
    11:00 +2°C° 0 mm 2 mps 768 mmHg 85%
    12:00 +2°C° 0 mm 2 mps 768 mmHg 85%
    13:00 +2°C° 0 mm 2 mps 768 mmHg 86%
    14:00 +2°C° 0 mm 2 mps 768 mmHg 88%
    15:00 +2°C° 0 mm 2 mps 768 mmHg 89%
    16:00 +2°C° 0 mm 2 mps 768 mmHg 90%
    17:00 +1°C° 0 mm 2 mps 769 mmHg 91%
    18:00 +1°C° 0 mm 2 mps 769 mmHg 91%
    19:00 +1°C° 0 mm 2 mps 769 mmHg 91%
    20:00 +1°C° 0 mm 2 mps 769 mmHg 91%
    21:00 -1°C° 0 mm 2 mps 769 mmHg 91%
    22:00 +1°C° 0 mm 1 mps 769 mmHg 91%
    23:00 +1°C° 0 mm 1 mps 770 mmHg 90%

    20 November, Tuesday

    Time Temperature Precipitation Wind Pressure Humidity
    00:00 +1°C° 0 mm 1 mps 770 mmHg 90%
    01:00 +1°C° 0 mm 1 mps 770 mmHg 91%
    02:00 0°C° 0 mm 1 mps 770 mmHg 91%
    03:00 0°C° 0 mm 1 mps 770 mmHg 92%
    04:00 0°C° 0 mm 1 mps 770 mmHg 92%
    05:00 0°C° 0 mm 1 mps 770 mmHg 92%
    06:00 -2°C° 0 mm 2 mps 770 mmHg 92%
    07:00 -2°C° 0 mm 2 mps 770 mmHg 90%
    08:00 -1°C° 0 mm 2 mps 770 mmHg 88%
    09:00 +1°C° 0 mm 1 mps 770 mmHg 87%
    10:00 +2°C° 0 mm 1 mps 770 mmHg 83%
    11:00 +2°C° 0 mm 1 mps 770 mmHg 80%
    12:00 +3°C° 0 mm 1 mps 770 mmHg 76%
    13:00 +3°C° 0 mm 1 mps 770 mmHg 77%
    14:00 +3°C° 0 mm 1 mps 769 mmHg 77%
    15:00 +2°C° 0 mm 2 mps 769 mmHg 78%
    16:00 +1°C° 0 mm 2 mps 769 mmHg 79%
    17:00 -1°C° 0 mm 2 mps 769 mmHg 81%
    18:00 -2°C° 0 mm 2 mps 769 mmHg 82%
    19:00 -2°C° 0 mm 2 mps 769 mmHg 81%
    20:00 -2°C° 0 mm 2 mps 769 mmHg 81%
    21:00 -2°C° 0 mm 3 mps 768 mmHg 80%
    22:00 -2°C° 0 mm 3 mps 768 mmHg 79%
    23:00 -2°C° 0 mm 2 mps 768 mmHg 78%
    Show more